Regional Weather Roundup
Issued by NWS Midland/Odessa, TX

Skip options and go directly to product.
Home | Oldest Version | Next Version | Current Version | All | Text Only | Save Text | Print | Product List | Glossary On

Skip product version selection by date and time.   
800
ASUS44 KMAF 170801
RWRMAF
MIDLAND AREA WEATHER ROUNDUP
NATIONAL WEATHER SERVICE MIDLAND TX
200 AM CST WED DEC 17 2014

...IN SOUTHWEST TEXAS AND SOUTHEAST NEW MEXICO...

CITY           SKY/WX    TMP DP  RH WIND       PRES   REMARKS
ALPINE         CLOUDY    47  39  72 SE7       30.12F
ANDREWS        CLOUDY    47  30  50 SE5       30.14F
ARTESIA        CLOUDY    36  28  75 N6        30.10F WCI  31
BIG SPRING     CLOUDY    54  31  42 E9        30.16F
CARLSBAD       MOCLDY    39  29  67 CALM      30.08F
DRYDEN           N/A     51  33  50 E9        30.09F
FORT STOCKTON  CLOUDY    48  34  58 S12       30.09F
GUAD PASS      NOT AVBL
HOBBS          CLOUDY    41  28  60 CALM      30.12F
MARFA          CLOUDY    41  34  75 CALM      30.10F
MIDLAND AIRPK  CLOUDY    52  32  46 SE9       30.14F
MIDLAND INTL   CLOUDY    51  31  46 SE10      30.12F
ODESSA         CLOUDY    51  31  46 S8        30.13F
PECOS          CLOUDY    47  32  55 E9        30.09F
PRESIDIO       FAIR      54  37  52 N8        30.03F
SEMINOLE       CLOUDY    47  30  51 SE5       30.16F
SNYDER         CLOUDY    47  31  52 E6        30.17F
WINK           CLOUDY    51  30  44 SE12      30.08F
$$
...OTHER STATIONS IN TEXAS...

CITY           SKY/WX    TMP DP  RH WIND       PRES   REMARKS
ABILENE        CLOUDY    50  31  48 SE10      30.19F
AMARILLO       CLOUDY    41  25  53 S7        30.15F WCI  36
AUSTIN         CLOUDY    51  36  56 E9        30.24F
BROWNSVILLE    MOCLDY    68  66  93 SE6       30.16R
CORPUS CHRISTI MOCLDY    60  49  66 NE9       30.18F
DALLAS FTW     MOCLDY    42  33  70 SE3       30.28F
DEL RIO        CLOUDY    56  38  50 SE7       30.17F
EL PASO        PTCLDY    45  29  53 N7        30.02F
HOUSTON INT    PTCLDY    45  38  76 NE6       30.26F
LUBBOCK        CLOUDY    45  28  51 SE10      30.15F WCI  40
SAN ANGELO     CLOUDY    54  34  46 SE8       30.16F
SAN ANTONIO    CLOUDY    55  36  48 E7        30.22F
WACO           CLOUDY    45  35  68 E6        30.27F
WICHITA FALLS  NOT AVBL
$$
...OTHER LOCATIONS IN NEW MEXICO...

CITY           SKY/WX    TMP DP  RH WIND       PRES   REMARKS
ALAMAGORDO     PTCLDY    41  25  52 N12       30.05F WCI  34
ALBUQUERQUE    MOCLDY    35  26  69 N3        30.07F
CANNON AFB     CLEAR     38  24  57 S6        30.11F WCI  34
CLOVIS         CLOUDY    36  23  60 S8        30.12F WCI  29
HOLLOMAN AFB   PTCLDY    35  24  64 NE10      30.03F WCI  28
ROSWELL        CLOUDY    36  27  69 CALM      30.09F
RUIDOSO        MOCLDY    27  23  86 W6        30.12S WCI  20
SANTA FE       PTCLDY    28  22  78 N5        30.06F WCI  23
TRUTH OR CONSE CLOUDY    37  21  52 NW3       30.03F
TUCUMCARI      CLOUDY    41  25  53 SW7       30.08F WCI  36
$$

USA.gov is the U.S. government's official web portal to all federal, state and local government web resources and services.